Home > Weather > Ganganagar > Past weeks

Flag for India Past Weather in Ganganagar, Rajasthan, India — Yesterday and Last 2 Weeks

Now
95 °F

Scattered clouds.


Feels Like: 110 °F
Forecast: 90 / 105 °F
Wind: 6 mph from East

Location: Lahore Airport

Current Time: Jul 24, 2016 at 6:26:17 PM

Latest Report: Jul 24, 2016 at 5:59 PM


Visibility: 3 mi

Pressure: 29.53 "Hg

Humidity: 56%

Dew Point: 77 °F

Location of GanganagarLocation

Past Weather in Ganganagar — Graph

°F

Ganganagar Temperature Yesterday

Maximum temperature yesterday: 91 °F (at 2:55 PM)
Minimum temperature yesterday: 81 °F (at 7:30 AM)
Average temperature yesterday: 87 °F

High & Low Weather Summary for the Past Weeks

 TemperatureHumidityPressure
High104 °F (Jul 20, 2:55 PM)100% (Jul 17, 3:25 AM)32.46 "Hg (Jul 17, 3:25 AM)
Low73 °F (Jul 17, 4:25 AM)38% (Jul 20, 3:29 PM)29.36 "Hg (Jul 10, 7:30 PM)
Average88 °F71%29.53 "Hg
* Reported Jul 9 3:55 PM — Jul 24 4:29 PM, Ganganagar, Weather by CustomWeather, © 2016

Note: Actual official high and low records may vary slightly from our data, if they occured in-between our weather recording intervals... More about our weather records

Advertising

Ganganagar Weather History for the Previous 24 Hours

Scroll right to see more
 ConditionsComfort  
Time TempWeatherWind HumidityBarometerVisibility
4:29 PM
Sun, Jul 24
99 °FScattered clouds.No wind57%29.56 "Hg3 mi
3:29 PM99 °FScattered clouds.3 mph57%29.62 "Hg4 mi
2:59 PM97 °FScattered clouds.5 mph60%29.62 "Hg5 mi
1:59 PM95 °FScattered clouds.3 mph60%29.65 "Hg5 mi
1:29 PM95 °FScattered clouds.5 mph60%29.65 "Hg5 mi
12:59 PM93 °FScattered clouds.5 mph63%29.68 "Hg5 mi
12:29 PM93 °FScattered clouds.5 mph63%29.68 "Hg5 mi
11:59 AM91 °FScattered clouds.5 mph63%29.68 "Hg5 mi
11:29 AM91 °FPassing clouds.7 mph63%29.71 "Hg5 mi
10:59 AM90 °FPassing clouds.3 mph63%29.71 "Hg5 mi
10:29 AM90 °FPassing clouds.6 mph63%29.71 "Hg5 mi
9:59 AM88 °FScattered clouds.5 mph70%29.71 "Hg4 mi
9:25 AM88 °FScattered clouds.6 mph70%29.71 "Hg4 mi
8:59 AM86 °FScattered clouds.5 mph70%29.68 "Hg4 mi
8:25 AM84 °FScattered clouds.7 mph74%29.68 "Hg4 mi
7:55 AM81 °FScattered clouds.No wind84%29.68 "Hg3 mi
7:25 AM81 °FScattered clouds.3 mph84%29.68 "Hg3 mi
6:55 AM81 °FScattered clouds.6 mph84%29.68 "Hg3 mi
5:25 AM81 °FThunderstorms. Partly cloudy.5 mph89%29.65 "Hg2 mi
4:55 AM82 °FThunderstorms. Partly cloudy.3 mph84%29.65 "Hg2 mi
4:25 AM82 °FThunderstorms. Partly cloudy.7 mph84%29.68 "Hg2 mi
3:55 AM82 °FThunderstorms. Partly cloudy.9 mph84%29.65 "Hg2 mi
3:25 AM82 °FPassing clouds.5 mph84%29.65 "Hg3 mi
2:55 AM82 °FPassing clouds.7 mph84%29.65 "Hg3 mi
2:25 AM82 °FPassing clouds.6 mph84%29.65 "Hg3 mi
1:55 AM84 °FPassing clouds.7 mph79%29.62 "Hg3 mi
1:25 AM84 °FPassing clouds.7 mph79%29.62 "Hg3 mi
12:55 AM84 °FPassing clouds.7 mph79%29.62 "Hg3 mi
12:25 AM84 °FPassing clouds.9 mph79%29.62 "Hg3 mi
11:55 PM
Sat, Jul 23
84 °FPassing clouds.7 mph79%29.62 "Hg3 mi
10:55 PM84 °FPassing clouds.7 mph79%29.59 "Hg3 mi
10:25 PM84 °FPassing clouds.7 mph79%29.59 "Hg3 mi
9:55 PM84 °FPassing clouds.6 mph79%29.59 "Hg3 mi
9:25 PM86 °FPassing clouds.7 mph75%29.59 "Hg3 mi
8:55 PM86 °FPassing clouds.7 mph75%29.56 "Hg3 mi
8:25 PM88 °FPassing clouds.9 mph70%29.56 "Hg3 mi
7:55 PM88 °FPassing clouds.9 mph70%29.56 "Hg4 mi
7:25 PM88 °FScattered clouds.6 mph70%29.56 "Hg4 mi
6:55 PM90 °FScattered clouds.7 mph67%29.56 "Hg4 mi
6:25 PM90 °FScattered clouds.8 mph67%29.56 "Hg4 mi
Weather by CustomWeather, © 2016

See weather overviewHow to use our weather pages